Regional Weather Roundup
Issued by NWS

Home | Current Version | Previous Version | Graphics & Text | Print | Product List | Glossary On
Versions: 1 2 3 4 5 6 7 8 9 10 11 12 13 14 15 16 17 18 19 20 21 22 23 24 25 26 27 28 29 30 31 32 33 34 35 36 37 38 39 40 41 42 43 44 45 46 47 48 49 50
000
ASUS43 KMPX 250610
RWRMN
WEATHER ROUNDUP FOR MINNESOTA
NATIONAL WEATHER SERVICE TWIN CITIES/CHANHASSEN MN
100 AM CDT SUN SEP 25 2016


NOTE: "FAIR" INDICATES FEW OR NO CLOUDS BELOW 12,000 FEET WITH NO
SIGNIFICANT WEATHER AND/OR OBSTRUCTIONS TO VISIBILITY. N/A MEANS
CURRENT SKY AND/OR WEATHER CONDITIONS ARE NOT AVAILABLE.

MNZ060>063-068>070-250700-
   Twin Cities Metro

CITY           SKY/WX    TMP DP  RH WIND       PRES   REMARKS
TWIN CITIES    LGT RAIN  68  64  87 SE10      29.95F
6HR MIN TEMP:  68; 6HR MAX TEMP:  68;

ST PAUL        CLOUDY    68  64  87 SE13      29.96F
CRYSTAL        CLOUDY    68  62  81 SE9       29.94F
BLAINE         CLOUDY    70  66  88 SE9       29.96F
LAKEVILLE      LGT RAIN  66  66 100 SE5       29.96F
EDEN PRAIRIE   LGT RAIN  69  65  86 SE8       29.93F
6HR MIN TEMP:  69; 6HR MAX TEMP:  70; 6HR PCP: TRACE;

LAKEVILLE      LGT RAIN  66  66 100 SE5       29.96F
SOUTH ST PAUL  CLOUDY    68  65  88 SE5       29.96F
LAKE ELMO      CLOUDY    68  64  88 SE10G16   29.98F
$$
MNZ001>005-007-008-013>017-022>024-027-028-250700-
   Northwest Minnesota

CITY           SKY/WX    TMP DP  RH WIND       PRES   REMARKS
BEMIDJI        CLOUDY    64  63  94 SE10      29.86F
HALLOCK        CLOUDY    66  64  94 S17       29.72F
ROSEAU         CLOUDY    66  61  82 SE13G21   29.79F
WARROAD        CLOUDY    64  61  88 SE15G21   29.82F
THIEF RVR FALL CLOUDY    67  64  90 S15       29.79F
CROOKSTON      MOCLDY    66  66 100 S16       29.77S
FOSSTON        CLOUDY    66  63  88 S13G22    29.82F
DETROIT LAKES  CLOUDY    66  64  94 S13       29.84F
MOORHEAD       PTCLDY    66  64  94 S10       29.80S
PARK RAPIDS    CLOUDY    67  63  87 SE18      29.86F
MAHNOMEN       FAIR      66  64  91 S10       29.81F
$$
MNZ006-009>011-018-025>026-250700-
   North Central Minnesota

CITY           SKY/WX    TMP DP  RH WIND       PRES   REMARKS
BAUDETTE       CLOUDY    63  61  93 SE13      29.85F
FLAG ISLAND    CLOUDY    63  61  94 SE18      29.82F
INTL FALLS     CLOUDY    63  59  87 S8        29.92F
6HR MIN TEMP:  62; 6HR MAX TEMP:  64;

WASKISH        CLOUDY    64  61  88 SE10      29.87F
BIG FORK       LGT RAIN  64  61  88 SE9       29.93S
LONGVILLE      RAIN      63  63 100 SE8       29.90F
GRAND RAPIDS   CLOUDY    63  61  93 SE12      29.95F
COOK           CLOUDY    63  57  82 SE5       29.97S
WALKER         LGT RAIN  64  62  94 SE13G18   29.88F
$$
MNZ012-019>021-037-250700-
   Northeast Minnesota

CITY           SKY/WX    TMP DP  RH WIND       PRES   REMARKS
DULUTH         CLOUDY    61  60  97 SE10      30.00F
6HR MIN TEMP:  61; 6HR MAX TEMP:  62;

ELY            CLOUDY    61  55  82 SE9G16    30.00S
HIBBING        CLOUDY    61  59  93 SE12      29.97F
EVELETH        CLOUDY    63  58  86 SE10      29.99F
DULUTH HARBOR  CLOUDY    61  57  88 E7        30.00F
TWO HARBORS    CLOUDY    64  59  82 E6        30.00F
SILVER BAY     CLOUDY    61  57  88 E3        30.02F
GRAND MARAIS     N/A     62  57  83 NE5       30.05F
G MARAIS ARPRT CLOUDY    57  52  82 SE6       30.09S
$$
MNZ029>031-032-039>041-046>048-054>057-064-250700-
   West Central Minnesota

CITY           SKY/WX    TMP DP  RH WIND       PRES   REMARKS
FERGUS FALLS   CLOUDY    66  66 100 S14       29.84F
MORRIS         CLOUDY    68  66  94 SE9       29.85F FOG
ALEXANDRIA     CLOUDY    67  67 100 SE15      29.88F
ELBOW LAKE     CLOUDY    67  66  96 S12G20    29.85F
GLENWOOD       CLOUDY    66  66 100 SE13G18   29.88F FOG
BENSON         CLOUDY    68  64  88 SW3       29.87S
MADISON          N/A     70  70 100 SE7       29.86S
WILLMAR        HVY RAIN  68  68 100 SE8       29.89F
$$
MNZ033>034-036-042>043-049>051-058-059-250700-
   Central Minnesota

CITY           SKY/WX    TMP DP  RH WIND       PRES   REMARKS
ST CLOUD       CLOUDY    66  65  96 SE14      29.92F
6HR MIN TEMP:  66; 6HR MAX TEMP:  68; 6HR PCP:  0.03;

SAUK CENTRE    CLOUDY    65  65  97 SE12G20   29.89F FOG
PAYNESVILLE    LGT RAIN  67  67 100 SE10      29.90F
AITKIN         MIX PCPN  64  61  88 SE9       29.93S
PINE RIVER     RAIN      64  64 100 SE12      29.94F
BRAINERD       RAIN      64  63  96 SE12G20   29.92F FOG
STAPLES        CLOUDY    64  63  94 SE10G20   29.89F
LONG PRAIRIE   CLOUDY    64  63  94 E9G16     29.89F FOG
LITTLE FALLS   DRIZZLE   64  61  88 SE14      29.91F
LITCHFIELD     DRIZZLE   70  68  94 SE8       29.92F
BUFFALO        LGT RAIN  67  63  86 SE9G16    29.94F
MAPLE LAKE     CLOUDY    68  66  93 SE9       29.94F
HUTCHINSON     CLOUDY    69  68  97 SE8       29.92F FOG
$$
MNZ037-044-045-052-053-250700-
   East Central Minnesota

CITY           SKY/WX    TMP DP  RH WIND       PRES   REMARKS
PRINCETON      CLOUDY    66  64  94 SE10      29.95F
MORA           CLOUDY    63  61  94 SE8       29.99F
CAMBRIDGE      CLOUDY    66  61  82 SE7       29.95F
MOOSE LAKE     CLOUDY    63  59  88 SE8       29.96S
HINCKLEY       CLOUDY    63  63 100 SE7       29.98F
CLOQUET        CLOUDY    61  57  88 E6        29.98F
MCGREGOR       CLOUDY    63  61  94 SE10      29.96S
$$
MNZ071>073-080-081-089-090-097-098-250700-
   Southwest Minnesota

CITY           SKY/WX    TMP DP  RH WIND       PRES   REMARKS
MONTEVIDEO     CLOUDY    68  68 100 S8        29.89F
GRANITE FALLS  RAIN      70  68  95 S8        29.89F
CANBY          CLOUDY    66  65  96 E6        29.88S
MARSHALL       LGT RAIN  68  67  96 S6        29.89F
REDWOOD FALLS  CLOUDY    69  66  90 S13       29.89F
OLIVIA         CLOUDY    70  68  94 S10       29.89F
PIPESTONE        N/A     70  66  88 SW9       29.91S
WINDOM         CLOUDY    68  66  94 S8G16     29.93S
WORTHINGTON    LGT RAIN  68  67  96 S12       29.94S
JACKSON        CLOUDY    68  64  88 S12G20    29.95S
TRACY          LGT RAIN  67  67  98 S8        29.91R
SLAYTON        LGT RAIN  66  64  94 S7        29.93S
$$
MNZ065>067-074>077-082>085-091>093-250700-
   South Central Minnesota

CITY           SKY/WX    TMP DP  RH WIND       PRES   REMARKS
MANKATO        CLOUDY    68  67  96 S8        29.94F FOG
NEW ULM        PTCLDY    68  66  94 S10       29.91F
ST JAMES       PTCLDY    66  64  94 S8        29.93F
FAIRMONT       CLOUDY    67  66  97 S13       29.95F
GLENCOE        MOCLDY    69  69 100 SE8       29.92F
FARIBAULT      LGT RAIN  68  66  94 SE8       29.96F
OWATONNA       LGT RAIN  68  64  88 SE10G16   29.96S
WASECA         CLOUDY    68  64  88 SE9       29.97R FOG
ALBERT LEA     CLOUDY    66  66 100 S10G16    29.96F FOG
$$
MNZ078>079-086>088-094>096-250700-
   Southeast Minnesota

CITY           SKY/WX    TMP DP  RH WIND       PRES   REMARKS
ROCHESTER      CLOUDY    67  65  93 SE16G24   30.00F
6HR MIN TEMP:  66; 6HR MAX TEMP:  67;

RED WING       CLOUDY    68  64  88 SE12      29.98F
DODGE CENTER   LGT RAIN  66  64  94 SE17G24   29.95F
WINONA         PTCLDY    63  61  94 SE9       30.03F
AUSTIN         DRIZZLE   66  64  94 SE9       29.98F
PRESTON        CLOUDY    65  62  91 S9        30.04F FOG
$$
ABBREVIATIONS USED IN REMARKS
   TC - TEMPERATURES IN CELSIUS
  WCI - WIND CHILL INDEX
   HX - HEAT INDEX
  VSB - VISIBILITY
$$




USA.gov is the U.S. government's official web portal to all federal, state and local government web resources and services.